FW5359 Weather Reports


time (UTC)temp
F
wind
direction
speed
knots
gust
knots
rain 1hr
in
rain 24hr
in
rain mn
in
humidity
%
barometer
mb
20260902235223 98 155 0.9 4.3 0.00 0.00 0.00 38 1012.9
20260902234450 98 155 0.9 4.3 0.00 0.00 0.00 38 1012.9
20260902233950 98 155 0.9 4.3 0.00 0.00 0.00 38 1012.9
20260902233450 98 154 0.9 4.3 0.00 0.00 0.00 38 1012.9
20260902232950 98 211 0.9 3.5 0.00 0.00 0.00 37 1013.0
20260902232450 98 123 0.9 2.6 0.00 0.00 0.00 38 1013.0
20260902231946 98 123 1.7 3.5 0.00 0.00 0.00 38 1012.9
20260902231446 98 121 1.7 6.1 0.00 0.00 0.00 38 1012.9
20260902231217 99 126 1.7 6.1 0.00 0.00 0.00 37 1012.9
20260902230446 99 246 1.7 6.1 0.00 0.00 0.00 38 1012.9
20260902225946 99 125 0.9 3.5 0.00 0.00 0.00 38 1012.9
20260902225449 99 117 0.9 3.5 0.00 0.00 0.00 37 1013.0
20260902225219 99 114 0.9 4.3 0.00 0.00 0.00 38 1013.0
20260902224449 99 145 1.7 4.3 0.00 0.00 0.00 38 1013.0
20260902223948 99 118 0.9 4.3 0.00 0.00 0.00 38 1013.0
20260902223444 99 136 0.9 7.0 0.00 0.00 0.00 38 1012.9
20260902222942 99 179 1.7 7.0 0.00 0.00 0.00 38 1013.0
20260902221942 100 115 1.7 5.2 0.00 0.00 0.00 39 1013.0
20260902221442 100 257 1.7 5.2 0.00 0.00 0.00 37 1013.1
20260902220944 100 166 1.7 5.2 0.00 0.00 0.00 38 1013.2
20260902220437 100 177 0.9 5.2 0.00 0.00 0.00 39 1013.2
20260902215936 100 187 0.9 2.6 0.00 0.00 0.00 39 1013.2
20260902215436 100 188 1.7 6.1 0.00 0.00 0.00 39 1013.3
20260902215206 100 184 1.7 6.1 0.00 0.00 0.00 39 1013.2
20260902214438 99 138 1.7 4.3 0.00 0.00 0.00 39 1013.3
20260902213935 100 198 1.7 6.1 0.00 0.00 0.00 39 1013.3
20260902213434 100 171 1.7 6.1 0.00 0.00 0.00 39 1013.3
20260902212932 99 262 1.7 5.2 0.00 0.00 0.00 40 1013.3
20260902212431 100 171 2.6 5.2 0.00 0.00 0.00 38 1013.4
20260902211932 100 162 1.7 5.2 0.00 0.00 0.00 39 1013.4
20260902211432 100 142 1.7 5.2 0.00 0.00 0.00 41 1013.4
20260902210931 100 175 1.7 5.2 0.00 0.00 0.00 40 1013.5
20260902210425 99 275 0.9 4.3 0.00 0.00 0.00 41 1013.6
20260902205919 99 152 0.9 7.8 0.00 0.00 0.00 42 1013.6
20260902205413 98 155 1.7 7.8 0.00 0.00 0.00 42 1013.7
20260902205138 99 70 1.7 7.0 0.00 0.00 0.00 41 1013.8
20260902204632 99 150 1.7 7.0 0.00 0.00 0.00 41 1013.9
20260902203854 99 204 1.7 7.0 0.00 0.00 0.00 43 1013.9
20260902203348 99 156 2.6 7.8 0.00 0.00 0.00 42 1014.0
20260902202843 99 227 2.6 7.8 0.00 0.00 0.00 42 1014.0
20260902202337 99 169 1.7 7.8 0.00 0.00 0.00 42 1014.2
20260902201831 98 138 1.7 9.6 0.00 0.00 0.00 45 1014.2
20260902201325 98 102 2.6 9.6 0.00 0.00 0.00 45 1014.3
20260902200819 98 90 1.7 6.1 0.00 0.00 0.00 45 1014.5
20260902200314 97 119 1.7 6.1 0.00 0.00 0.00 45 1014.5
20260902195807 97 155 1.7 6.1 0.00 0.00 0.00 44 1014.7
20260902195301 97 167 1.7 6.1 0.00 0.00 0.00 45 1014.8
20260902195026 97 348 1.7 5.2 0.00 0.00 0.00 44 1014.8
20260902194249 97 121 1.7 5.2 0.00 0.00 0.00 43 1014.9
20260902193743 98 123 2.6 6.1 0.00 0.00 0.00 44 1015.0
20260902193237 98 113 2.6 6.1 0.00 0.00 0.00 44 1015.0
20260902192731 98 136 1.7 6.1 0.00 0.00 0.00 45 1015.2
20260902192225 98 163 1.7 7.0 0.00 0.00 0.00 43 1015.2
20260902191719 98 159 2.6 7.0 0.00 0.00 0.00 42 1015.3
20260902191213 98 251 1.7 7.0 0.00 0.00 0.00 42 1015.4
20260902190939 98 175 0.9 4.3 0.00 0.00 0.00 43 1015.5
20260902190201 97 217 1.7 4.3 0.00 0.00 0.00 44 1015.6
20260902185655 97 213 1.7 7.0 0.00 0.00 0.00 45 1015.7
20260902185149 97 211 1.7 7.0 0.00 0.00 0.00 46 1015.7
20260902184643 96 107 1.7 6.1 0.00 0.00 0.00 47 1015.8
20260902184137 96 152 1.7 6.1 0.00 0.00 0.00 48 1015.9
20260902183631 96 209 1.7 6.1 0.00 0.00 0.00 48 1016.0
20260902183125 96 163 2.6 6.1 0.00 0.00 0.00 49 1016.1
20260902182113 96 150 1.7 6.1 0.00 0.00 0.00 50 1016.3
20260902181606 95 163 1.7 6.1 0.00 0.00 0.00 51 1016.3
20260902181101 95 217 0.9 5.2 0.00 0.00 0.00 53 1016.4
20260902180827 95 225 1.7 5.2 0.00 0.00 0.00 53 1016.5
20260902180048 94 149 2.6 8.7 0.00 0.00 0.00 54 1016.6
20260902175543 94 164 2.6 8.7 0.00 0.00 0.00 55 1016.7
20260902175036 94 164 1.7 6.1 0.00 0.00 0.00 55 1016.8
20260902174803 94 184 1.7 7.0 0.00 0.00 0.00 55 1016.9
20260902174024 93 192 2.6 9.6 0.00 0.00 0.00 55 1017.0
20260902173519 93 148 2.6 9.6 0.00 0.00 0.00 56 1017.0
20260902173013 93 221 2.6 6.1 0.00 0.00 0.00 57 1017.0
20260902172507 93 176 2.6 6.1 0.00 0.00 0.00 57 1017.2
20260902172001 94 150 1.7 6.1 0.00 0.00 0.00 56 1017.1
20260902171455 93 231 0.9 4.3 0.00 0.00 0.00 59 1017.2
20260902170949 93 234 0.9 4.3 0.00 0.00 0.00 58 1017.3
20260902170443 93 237 1.7 6.1 0.00 0.00 0.00 57 1017.3
20260902165936 92 236 1.7 6.1 0.00 0.00 0.00 58 1017.4
20260902165431 92 242 1.7 5.2 0.00 0.00 0.00 58 1017.4
20260902164925 92 228 1.7 5.2 0.00 0.00 0.00 60 1017.4
20260902164419 92 196 0.9 4.3 0.00 0.00 0.00 60 1017.5
20260902164144 91 242 1.7 7.0 0.00 0.00 0.00 61 1017.5
20260902163412 91 146 1.7 7.0 0.00 0.00 0.00 62 1017.6
20260902162913 91 261 1.7 4.3 0.00 0.00 0.00 62 1017.5
20260902162412 90 229 1.7 6.1 0.00 0.00 0.00 63 1017.5
20260902161913 90 263 1.7 6.1 0.00 0.00 0.00 63 1017.6
20260902161413 90 230 0.9 5.2 0.00 0.00 0.00 64 1017.5
20260902160913 90 267 0.9 5.2 0.00 0.00 0.00 67 1017.5
20260902160413 89 185 0.9 3.5 0.00 0.00 0.00 68 1017.6
20260902155913 88 184 1.7 4.3 0.00 0.00 0.00 69 1017.7
20260902155413 88 221 0.9 4.3 0.00 0.00 0.00 68 1017.7
20260902154913 88 296 1.7 3.5 0.00 0.00 0.00 68 1017.6
20260902153913 87 213 0.9 3.5 0.00 0.00 0.00 70 1017.7
20260902153413 87 213 1.7 3.5 0.00 0.00 0.00 71 1017.7
20260902152913 87 213 0.9 3.5 0.00 0.00 0.00 73 1017.7
20260902152412 86 213 0.9 3.5 0.00 0.00 0.00 72 1017.7
20260902151915 85 304 0.9 5.2 0.00 0.00 0.00 74 1017.7
20260902151411 85 278 1.7 5.2 0.00 0.00 0.00 75 1017.7
20260902150913 85 238 1.7 5.2 0.00 0.00 0.00 75 1017.7
20260902150406 84 205 1.7 5.2 0.00 0.00 0.00 75 1017.7
20260902145355 84 240 1.7 7.0 0.00 0.00 0.00 76 1017.8
20260902144850 84 243 1.7 4.3 0.00 0.00 0.00 76 1017.8
20260902144342 83 250 1.7 3.5 0.00 0.00 0.00 78 1017.8
20260902143837 83 247 1.7 3.5 0.00 0.00 0.00 78 1017.9
20260902143331 83 238 1.7 3.5 0.00 0.00 0.00 79 1017.8
20260902143055 83 241 1.7 3.5 0.00 0.00 0.00 79 1017.7
20260902142550 83 251 0.9 3.5 0.00 0.00 0.00 80 1017.7
20260902142044 82 182 0.9 2.6 0.00 0.00 0.00 80 1017.7
20260902141307 82 176 0.9 2.6 0.00 0.00 0.00 81 1017.7
20260902140800 82 176 0.9 2.6 0.00 0.00 0.00 82 1017.6
20260902140254 82 176 0.0 2.6 0.00 0.00 0.00 82 1017.7
20260902135748 81 176 0.0 0.0 0.00 0.00 0.00 83 1017.7
20260902135243 80 176 0.0 0.0 0.00 0.00 0.00 84 1017.6
20260902134736 80 176 0.0 0.0 0.00 0.00 0.00 84 1017.5
20260902134231 79 176 0.0 0.0 0.00 0.00 0.00 85 1017.5
20260902133725 79 176 0.0 0.0 0.00 0.00 0.00 85 1017.5
20260902133219 79 176 0.0 0.0 0.00 0.00 0.00 85 1017.5
20260902132712 78 176 0.0 0.0 0.00 0.00 0.00 85 1017.5
20260902132207 78 176 0.0 0.0 0.00 0.00 0.00 85 1017.5
20260902131701 77 176 0.0 0.0 0.00 0.00 0.00 85 1017.4
20260902130649 76 176 0.0 0.0 0.00 0.00 0.00 86 1017.4
20260902130143 76 176 0.0 0.0 0.00 0.00 0.00 87 1017.3
20260902125637 75 176 0.0 0.0 0.00 0.00 0.00 87 1017.3
20260902125401 75 176 0.0 0.0 0.00 0.00 0.00 86 1017.2
20260902124625 75 176 0.0 0.0 0.00 0.00 0.00 85 1017.2
20260902124119 75 176 0.0 0.0 0.00 0.00 0.00 85 1017.2
20260902123612 75 176 0.0 0.0 0.00 0.00 0.00 85 1017.1
20260902123106 76 176 0.0 0.0 0.00 0.00 0.00 86 1017.0
20260902122600 76 176 0.0 0.0 0.00 0.00 0.00 86 1016.9
20260902122054 75 176 0.0 0.0 0.00 0.00 0.00 85 1016.8
20260902121549 75 176 0.0 0.0 0.00 0.00 0.00 84 1016.9
20260902121043 75 176 0.0 0.0 0.00 0.00 0.00 84 1016.9
20260902120537 76 176 0.0 0.0 0.00 0.00 0.00 85 1016.8
20260902120030 76 176 0.0 0.0 0.00 0.00 0.00 86 1016.9
20260902115524 76 176 0.0 0.0 0.00 0.00 0.00 86 1016.9
20260902115250 76 176 0.0 0.0 0.00 0.00 0.00 85 1016.9
20260902114743 76 176 0.0 0.0 0.00 0.00 0.00 86 1016.8
20260902114007 76 176 0.0 0.0 0.00 0.00 0.00 86 1016.8
20260902113500 76 176 0.0 0.0 0.00 0.00 0.00 85 1016.8
20260902112954 76 176 0.0 0.0 0.00 0.00 0.00 85 1016.8
20260902112449 76 176 0.0 0.0 0.00 0.00 0.00 85 1016.8
20260902111943 76 176 0.0 0.0 0.00 0.00 0.00 85 1016.8
20260902111437 76 176 0.0 0.0 0.00 0.00 0.00 84 1016.8
20260902110931 76 176 0.0 0.0 0.00 0.00 0.00 84 1016.9
20260902110424 76 176 0.0 0.0 0.00 0.00 0.00 84 1016.7
20260902105918 76 176 0.0 0.0 0.00 0.00 0.00 84 1016.7
20260902105412 76 176 0.0 0.0 0.00 0.00 0.00 83 1016.6
20260902104906 76 176 0.0 0.0 0.00 0.00 0.00 83 1016.6
20260902104401 76 176 0.0 0.0 0.00 0.00 0.00 83 1016.7
20260902103620 76 176 0.0 0.0 0.00 0.00 0.00 83 1016.7
20260902102842 76 176 0.0 0.0 0.00 0.00 0.00 83 1016.7
20260902102337 76 176 0.0 0.0 0.00 0.00 0.00 82 1016.7
20260902101831 76 176 0.0 0.0 0.00 0.00 0.00 82 1016.7
20260902101325 76 176 0.0 0.0 0.00 0.00 0.00 82 1016.6
20260902101049 76 176 0.0 0.0 0.00 0.00 0.00 81 1016.6
20260902100313 76 176 0.0 0.0 0.00 0.00 0.00 81 1016.7
20260902095805 76 176 0.0 0.0 0.00 0.00 0.00 81 1016.7
20260902095307 76 176 0.0 0.0 0.00 0.00 0.00 80 1016.8
20260902095034 76 176 0.0 0.0 0.00 0.00 0.00 79 1016.8
20260902094304 77 176 0.0 0.0 0.00 0.00 0.00 78 1016.8
20260902094035 77 176 0.0 0.0 0.00 0.00 0.00 79 1016.8
20260902093303 77 176 0.0 0.0 0.00 0.00 0.00 79 1016.7
20260902092802 77 176 0.0 0.0 0.00 0.00 0.00 79 1016.7
20260902092305 77 176 0.0 0.0 0.00 0.00 0.00 79 1016.7
20260902091802 78 176 0.0 0.0 0.00 0.00 0.00 79 1016.8
20260902091302 78 176 0.0 0.0 0.00 0.00 0.00 79 1016.9
20260902090758 78 176 0.0 0.0 0.00 0.00 0.00 78 1016.9
20260902090529 78 176 0.0 0.0 0.00 0.00 0.00 78 1016.9
20260902085757 78 176 0.0 0.0 0.00 0.00 0.00 77 1017.0
20260902085257 78 176 0.0 0.0 0.00 0.00 0.00 77 1017.0
20260902085028 78 176 0.0 0.0 0.00 0.00 0.00 77 1017.0
20260902084528 78 176 0.0 0.0 0.00 0.00 0.00 77 1016.9
20260902083758 78 176 0.0 0.0 0.00 0.00 0.00 76 1016.8
20260902083258 79 176 0.0 0.0 0.00 0.00 0.00 76 1016.9
20260902082758 79 176 0.0 0.0 0.00 0.00 0.00 75 1016.9
20260902082253 79 176 0.0 0.0 0.00 0.00 0.00 75 1016.9
20260902081751 79 176 0.0 0.0 0.00 0.00 0.00 75 1016.9
20260902081250 79 176 0.0 0.0 0.00 0.00 0.00 75 1017.0
20260902080748 79 176 0.0 0.0 0.00 0.00 0.00 75 1016.9
20260902080516 80 176 0.0 0.0 0.00 0.00 0.00 74 1017.0
20260902075746 80 176 0.0 0.0 0.00 0.00 0.00 74 1017.1
20260902075244 80 176 0.0 0.0 0.00 0.00 0.00 73 1017.1
20260902074742 80 176 0.0 0.0 0.00 0.00 0.00 73 1017.1
20260902074240 80 176 0.0 0.0 0.00 0.00 0.00 73 1017.1
20260902073737 80 176 0.0 3.5 0.00 0.00 0.00 72 1017.0
20260902073235 80 176 0.0 3.5 0.00 0.00 0.00 72 1017.1
20260902072734 81 177 0.0 1.7 0.00 0.00 0.00 71 1017.0
20260902072234 81 177 0.0 1.7 0.00 0.00 0.00 71 1017.0
20260902071731 81 177 0.9 3.5 0.00 0.00 0.00 70 1017.1
20260902071232 81 177 0.9 3.5 0.00 0.00 0.00 70 1017.0
20260902071001 81 177 0.9 4.3 0.00 0.00 0.00 70 1017.1
20260902070229 81 178 0.9 5.2 0.00 0.00 0.00 70 1017.0
20260902065729 81 196 0.9 5.2 0.00 0.00 0.00 69 1017.1
20260902065228 81 169 0.9 5.2 0.00 0.00 0.00 69 1017.0
20260902064721 82 171 0.9 5.2 0.00 0.00 0.00 68 1016.9
20260902064446 82 171 0.9 3.5 0.00 0.00 0.00 68 1017.0
20260902063709 82 171 0.9 4.3 0.00 0.00 0.00 67 1016.9
20260902063434 82 171 1.7 5.2 0.00 0.00 0.00 67 1016.9
20260902062657 82 171 1.7 5.2 0.00 0.00 0.00 67 1016.9
20260902062151 83 174 0.9 4.3 0.00 0.00 0.00 66 1016.8
20260902061645 83 174 1.7 5.2 0.00 0.00 0.00 66 1016.9
20260902060633 83 166 1.7 5.2 0.00 0.00 0.00 66 1016.8
20260902060127 83 222 1.7 5.2 0.00 0.00 0.00 66 1016.9
20260902055621 83 168 0.9 3.5 0.00 0.00 0.00 67 1016.9
20260902055115 83 167 1.7 5.2 0.00 0.00 0.00 67 1016.8
20260902054610 83 167 1.7 7.8 0.00 0.00 0.00 67 1016.9
20260902054109 83 168 1.7 7.8 0.00 0.00 0.00 67 1016.8
20260902053840 83 166 0.9 4.3 0.00 0.00 0.00 67 1016.9
20260902053111 83 165 0.9 3.5 0.00 0.00 0.00 67 1016.9
20260902052611 83 166 0.9 6.1 0.00 0.00 0.00 67 1016.8
20260902052109 84 166 0.9 6.1 0.00 0.00 0.00 66 1016.7
20260902051609 84 123 0.9 4.3 0.00 0.00 0.00 66 1016.7
20260902051105 84 116 0.9 4.3 0.00 0.00 0.00 66 1016.7
20260902050604 84 122 0.9 5.2 0.00 0.00 0.00 66 1016.7
20260902050101 84 116 1.7 5.2 0.00 0.00 0.00 66 1016.6
20260902045601 84 145 1.7 6.1 0.00 0.00 0.00 65 1016.6
20260902045101 85 141 0.9 6.1 0.00 0.00 0.00 65 1016.5
20260902044832 85 128 0.9 1.7 0.00 0.00 0.00 65 1016.6
20260902044101 85 128 0.9 3.5 0.00 0.00 0.00 64 1016.6
20260902043601 85 128 0.9 3.5 0.00 0.00 0.00 64 1016.6
20260902043324 85 128 1.7 3.5 0.00 0.00 0.00 64 1016.6
20260902042818 85 132 1.7 7.0 0.00 0.00 0.00 64 1016.6
20260902042041 86 128 1.7 5.2 0.00 0.00 0.00 63 1016.6
20260902041558 86 144 1.7 7.0 0.00 0.00 0.00 63 1016.6
20260902041039 86 68 2.6 7.0 0.00 0.00 0.00 63 1016.6
20260902040538 86 130 1.7 7.0 0.00 0.00 0.00 62 1016.5
20260902040308 86 109 2.6 7.8 0.00 0.00 0.00 62 1016.4
20260902035537 86 155 1.7 7.8 0.00 0.00 0.00 62 1016.4
20260902035037 87 119 1.7 6.1 0.00 0.00 0.00 62 1016.4
20260902034537 87 122 1.7 6.1 0.00 0.00 0.00 62 1016.4
20260902034034 87 104 1.7 6.1 0.00 0.00 0.00 62 1016.3
20260902033534 87 107 1.7 5.2 0.00 0.00 0.00 62 1016.2
20260902033034 87 111 0.9 5.2 0.00 0.00 0.00 61 1016.2
20260902032534 87 111 0.9 5.2 0.00 0.00 0.00 61 1016.1
20260902032035 87 115 1.7 5.2 0.00 0.00 0.00 61 1016.1
20260902031535 86 110 0.9 3.5 0.00 0.00 0.00 61 1016.0
20260902031040 86 111 0.9 2.6 0.00 0.00 0.00 60 1016.0
20260902030532 86 111 0.9 2.6 0.00 0.00 0.00 60 1015.9
20260902030030 86 111 0.9 1.7 0.00 0.00 0.00 60 1015.9
20260902025800 86 111 0.9 2.6 0.00 0.00 0.00 59 1015.8
20260902025030 86 111 0.0 2.6 0.00 0.00 0.00 59 1015.7
20260902024525 86 111 0.0 0.0 0.00 0.00 0.00 59 1015.6
20260902023513 86 111 0.0 0.0 0.00 0.00 0.00 58 1015.4
20260902023009 86 111 0.0 0.0 0.00 0.00 0.00 57 1015.3
20260902022501 87 111 0.0 0.0 0.00 0.01 0.00 56 1015.3
20260902022225 87 111 0.0 0.0 0.00 0.01 0.00 55 1015.0
20260902021449 87 111 0.0 0.0 0.00 0.01 0.00 55 1014.8
20260902020942 87 111 0.0 0.0 0.00 0.01 0.00 54 1014.8
20260902020437 88 111 0.0 0.0 0.00 0.01 0.00 53 1014.7
20260902020201 88 111 0.0 0.0 0.00 0.01 0.00 53 1014.6
20260902015424 88 111 0.0 0.0 0.00 0.01 0.00 52 1014.5
20260902014919 89 111 0.0 0.0 0.00 0.01 0.00 52 1014.4
20260902014413 89 111 0.0 0.0 0.00 0.01 0.00 51 1014.4
20260902014137 89 111 0.0 0.0 0.00 0.01 0.00 51 1014.4
20260902013401 89 111 0.0 0.0 0.00 0.01 0.00 50 1014.3
20260902012855 90 111 0.0 0.0 0.00 0.01 0.00 50 1014.3
20260902012349 90 111 0.0 0.0 0.00 0.01 0.00 49 1014.3
20260902012113 90 111 0.0 0.0 0.00 0.01 0.00 49 1014.3
20260902011336 90 111 0.0 0.0 0.00 0.01 0.00 49 1014.3
20260902010831 91 111 0.0 0.0 0.00 0.01 0.00 48 1014.2
20260902010324 91 111 0.0 0.0 0.00 0.01 0.00 48 1014.2
20260902005819 91 111 0.0 0.0 0.00 0.01 0.00 48 1014.2
20260902005317 91 111 0.0 0.0 0.00 0.01 0.00 48 1014.1
20260902004806 92 111 0.0 0.0 0.00 0.01 0.00 48 1014.1
20260902004301 92 111 0.0 0.0 0.00 0.01 0.00 47 1014.1
20260902004025 92 111 0.0 0.0 0.00 0.01 0.00 47 1014.1
20260902003249 93 111 0.0 0.0 0.00 0.01 0.00 47 1014.2
20260902002743 93 111 0.0 0.0 0.00 0.01 0.00 46 1014.1
20260902002237 93 111 0.0 1.7 0.00 0.01 0.00 46 1014.1
20260902001731 93 111 0.0 2.6 0.00 0.01 0.00 46 1014.1
20260902001225 94 111 0.9 3.5 0.00 0.01 0.00 46 1014.1
20260902000718 94 110 0.9 5.2 0.00 0.01 0.00 45 1014.1
20260902000444 94 113 0.9 5.2 0.00 0.01 0.00 45 1014.1
20260901235707 95 112 0.9 5.2 0.00 0.01 0.00 44 1014.1